Weather Roundup
Issued by NWS

Home | Current Version | Previous Version | Graphics & Text | Print | Product List | Glossary Off
Versions: 1 2 3 4 5 6 7 8 9 10 11 12 13 14 15 16 17 18 19 20 21 22 23 24 25 26 27 28 29 30 31 32 33 34 35 36 37 38 39 40 41 42 43 44 45 46 47 48 49 50

000
NZUS93 KARX 200159
HRRWXR

CURRENT HOURLY OBSERVATIONS ACROSS
MUCH OF THE UPPER MISSISSIPPI VALLEY
NATIONAL WEATHER SERVICE LA CROSSE WI
900 PM CDT TUE AUG 19 2014


...SOUTHEAST MINNESOTA...


CITY           SKY/WX    TMP DP  RH WIND       PRES   REMARKS
ROCHESTER      MOCLDY    69  64  84 W3        29.80R
ROCHESTER/MAYO CLOUDY    72  61  68 W3        29.79R
WINONA         PTCLDY    70  63  78 CALM      29.77R
AUSTIN         PTCLDY    72  64  78 NE3       29.80R
ALBERT LEA     CLEAR     72  66  83 CALM      29.79R
DODGE CENTER   PTCLDY    68  66  94 CALM      29.80R
PRESTON        CLOUDY    70  67  89 W5        29.80R
OWATONNA       CLEAR     68  64  88 CALM      29.80R
FARIBAULT      PTCLDY    70  64  83 CALM      29.79R
$$

...ELSEWHERE IN MINNESOTA...


CITY           SKY/WX    TMP DP  RH WIND       PRES   REMARKS
MINNEAPOLIS    PTCLDY    74  64  71 SE5       29.77R
INTNL FALLS    CLEAR     58  57  97 CALM      29.80R
DULUTH         MOCLDY    66  59  78 NE3       29.80R
RED WING       CLOUDY    72  64  78 CALM      29.76R HAZE
REDWOOD FALLS  CLEAR     74  65  73 NW3       29.78R
MANKATO        CLEAR     73  63  68 NW3       29.78R
WORTHINGTON    CLEAR     72  12  10 SW3       29.82S
FAIRMONT       CLEAR     72  63  73 CALM      29.80R
$$

...SOUTHWEST WISCONSIN...


CITY           SKY/WX    TMP DP  RH WIND       PRES   REMARKS
LA CROSSE      PTCLDY    72  65  78 CALM      29.75R
PRAIRIE DU CHI CLEAR     73  61  65 W3        29.76R
BOSCOBEL       CLEAR     70  65  84 CALM      29.77R
LONE ROCK      NOT AVBL
PLATTEVILLE    CLEAR     71  65  81 W5        29.78R
FORT MC COY    PTCLDY    67  63  86 CALM      29.77R
VIROQUA        FAIR      67  64  87 CALM      29.78R
WIS DELLS      MOCLDY    68  62  79 CALM      29.76R
$$

...ELSEWHERE IN WISCONSIN...


CITY           SKY/WX    TMP DP  RH WIND       PRES   REMARKS
MILWAUKEE      PTCLDY    72  65  78 E3        29.74R
MADISON        PTCLDY    69  64  84 CALM      29.76R
GREEN BAY      MOCLDY    67  65  93 CALM      29.72R
EAU CLAIRE     NOT AVBL
BLACK RVR FLS  FAIR      69  67  96 CALM      29.76R
MEDFORD        RAIN      64  63  97 N5        29.78R
WAUSAU         MOCLDY    66  64  93 CALM      29.75R
WIS RAPIDS     PTCLDY    67  63  87 W3        29.78R
MARSHFIELD     PTCLDY    66  62  87 N6        29.77R
RICE LAKE      CLOUDY    67  63  86 W6        29.79R
$$

...NORTHEAST IOWA...


CITY           SKY/WX    TMP DP  RH WIND       PRES   REMARKS
WATERLOO       CLEAR     73  66  78 CALM      29.78R
DUBUQUE        CLEAR     68  62  81 W3        29.79R
DECORAH        CLEAR     72  64  78 CALM      29.78R
MASON CITY     PTCLDY    71  66  84 CALM      29.81R
CHARLES CITY   MOCLDY    70  66  88 CALM      29.80R
OELWEIN        CLEAR     70  64  83 W5        29.80R
$$

...ELSEWHERE IN IOWA...


CITY           SKY/WX    TMP DP  RH WIND       PRES   REMARKS
DES MOINES     PTCLDY    80  65  59 CALM      29.80R
IOWA CITY      CLEAR     73  66  78 NW3       29.80R
FORT DODGE     CLEAR     70  64  83 CALM      29.82R
MARSHALLTOWN   CLEAR     70  66  87 SW5       29.80R
CEDAR RAPIDS   CLEAR     70  66  87 CALM      29.79R
$$

...NORTHERN ILLINOIS...


CITY           SKY/WX    TMP DP  RH WIND       PRES   REMARKS
CHICAGO-OHARE  MOCLDY    75  66  73 W8        29.74R
DUPAGE         CLEAR     75  65  70 W6        29.75R
CHICAGO-MIDWAY PTCLDY    80  68  66 SW6       29.74R
MOLINE         CLEAR     72  65  78 SW5       29.78R
ROCKFORD       PTCLDY    73  62  68 W3        29.77R
STERLING       CLEAR     72  63  73 NW6       29.78R
PEORIA         CLEAR     76  69  79 W5        29.79R
$$

NOTE: "FAIR" INDICATES FEW OR NO CLOUDS BELOW 12,000 FEET WITH NO
SIGNIFICANT WEATHER AND/OR OBSTRUCTIONS TO VISIBILITY. WIND
SPEEDS ARE IN MILES-PER-HOUR.



USA.gov is the U.S. government's official web portal to all federal, state and local government web resources and services.